Other Public Products
Issued by NWS Grand Forks, ND

Home | Current Version | Previous Version | Text Only | Print | Product List | Glossary Off
Versions: 1 2 3 4 5 6 7 8 9 10 11 12 13 14 15 16 17 18 19 20 21 22 23 24 25 26 27 28 29 30 31 32 33 34 35 36 37 38 39 40 41 42 43 44 45 46 47 48 49 50

000
FPUS83 KFGF 221610
OPUFGF
PRAIRIE TO PINES WEATHER ROUNDUP
NATIONAL WEATHER SERVICE EASTERN NORTH DAKOTA/GRAND FORKS ND
1000 AM CST SAT NOV 22 2014

 **SATELLITE DATA USED TO AUGMENT SKY COVER AT AUTOMATED STATIONS**
 *****  WEATHER ACROSS EASTERN NORTH DAKOTA  *****

CITY           SKY/WX    TMP DP  RH WIND       PRES   REMARKS
GRAND FORKS    SUNNY     29  26  89 S5        29.57F WCI  24
GRAND FORKS AF SUNNY     34  28  79 W2        29.57F HAZE
GRAND CITY NWS   N/A     28 N/A N/A S5          N/A  WCI  23
BUXTON         NOT AVBL
DEVILS LAKE    SUNNY     30  21  69 SE5       29.50F
FARGO          SUNNY     32  25  75 S12       29.60F WCI  23
WAHPETON ARPT  SUNNY     30  25  80 S5        29.63F
$$

 *****  WEATHER ACROSS CENTRAL AND WESTERN NORTH DAKOTA  *****

CITY           SKY/WX    TMP DP  RH WIND       PRES   REMARKS
JAMESTOWN      SUNNY     33  26  75 S7        29.53F
BISMARCK       CLOUDY    31  27  85 E5        29.50F
MINOT          CLOUDY    30  26  85 S5        29.46S
MINOT AFB      CLOUDY    30  30  99 SE6       29.44F WCI  24
GARRISON         N/A     33  30  88 S5        29.46S
WILLISTON      CLOUDY    34  29  82 S3        29.36F
DICKINSON      CLOUDY    38  27  64 S10       29.39F
HETTINGER      MOSUNNY   32  25  75 CALM      29.46F
$$

 *****  OTHER OBSERVATIONS NORTHEAST NORTH DAKOTA  *****

CITY           SKY/WX    TMP DP  RH WIND       PRES   REMARKS
WALHALLA         N/A     32  32 100 NE3       29.58F FOG
LANGDON        FOG       32  28  86 E12       29.53F VSB 3/4 WCI  23
CAVALIER       CLOUDY    32  30  93 NE5       29.58F FOG
GRAFTON        CLOUDY    28  27  93 SE3       29.58S
CANDO          FAIR      27  27 100 SE6       29.52F WCI  20
FORT TOTTEN    NOT AVBL
ROLLA          CLOUDY    27  27 100 E10       29.51S WCI  17
RUGBY          FAIR      28  28 100 E5        29.49F WCI  23
 ***** THE ABOVE OBSERVATIONS ARE NON NWS ARE NOT QUALITY
        CONTROLLED AND MAY MIS-REPORT RAIN FOR SNOW...
$$

 *****  OTHER OBSERVATIONS SOUTHEAST NORTH DAKOTA *****

CITY           SKY/WX    TMP DP  RH WIND       PRES   REMARKS
COOPERSTOWN    NOT AVBL
VALLEY CITY    FAIR      27  27 100 SE3       29.56F
OAKES            N/A     28  27  93 S13       29.59S WCI  18
GWINNER        SUNNY     34  30  86 SW15      29.58F WCI  24
SHEYENNE NWR     N/A     36  28  71 SW7       29.95S
BUFFALO        NOT AVBL
WYNDMERE         N/A     34  27  75 SE3         N/A
 ***** THE ABOVE OBSERVATIONS ARE NON NWS ARE NOT QUALITY
       CONTROLLED AND MAY MIS-REPORT RAIN FOR SNOW...
$$

  *****  WEATHER ACROSS NORTHERN MINNESOTA  *****

CITY           SKY/WX    TMP DP  RH WIND       PRES   REMARKS
FLAG ISLAND    CLOUDY    28  27  93 CALM      29.59F
WARROAD        CLOUDY    34  28  80 CALM      29.60F
ROSEAU         CLOUDY    34  28  80 CALM      29.59F
HALLOCK        PTSUNNY   30  27  86 SE5       29.58F
THF RVR FALLS  SUNNY     25  23  93 SE5       29.59F WCI  19
HALSTAD          N/A     32  27  81 S12         N/A  WCI  23
FOSSTON        SUNNY     30  25  80 S8        29.59F WCI  23
BAUDETTE       CLOUDY    33  29  85 S3        29.59F
WASKISH        CLOUDY    36  30  80 CALM      29.62S
CROOKSTON      SUNNY     27  25  93 S9        29.60F WCI  17
$$
  *****  WEATHER ACROSS CENTRAL AND WEST MINNESOTA  *****

CITY           SKY/WX    TMP DP  RH WIND       PRES   REMARKS
BEMIDJI        SUNNY     24  23  96 CALM      29.61F
PARK RAPIDS    SUNNY     28  27  96 SE5       29.61F WCI  23
WADENA         SUNNY     30  28  93 S5        29.63F
DETROIT LAKES  SUNNY     32  28  86 S6        29.62F
MOORHEAD       SUNNY     32  30  93 S8        29.62S WCI  25
FERGUS FALLS   SUNNY     30  25  80 SE8       29.65F WCI  23
ELBOW LAKE       N/A     29  26  87 SE8       29.64F WCI  21
MORRIS MN      SUNNY     27  25  93 SE8       29.64F WCI  18
STAPLES        SUNNY     28  27  93 S5        29.64F WCI  23
WHEATON        SUNNY     28  25  86 SE9       29.65F WCI  20
$$
  *****  WEATHER ELSEWHERE ACROSS MINNESOTA  *****

CITY           SKY/WX    TMP DP  RH WIND       PRES   REMARKS
DULUTH         CLOUDY    30  27  88 SW9       29.67F FOG     WCI  22
INTRNTL FALLS  CLOUDY    34  28  79 SW6       29.61S
ELY            CLOUDY    28  28 100 SW7       29.63F FOG     WCI  21
CLOQUET        CLOUDY    30  28  93 SW7       29.67F FOG     WCI  23
BRAINERD       SUNNY     29  27  92 S6        29.67S FOG     WCI  23
HIBBING        CLOUDY    28  25  88 VRB5      29.65F FOG     WCI  23
ALEXANDRIA     SUNNY     32  27  81 S8        29.66F WCI  25
SAINT CLOUD    SUNNY     31  28  89 S9        29.71F FOG     WCI  23
MINNEAPOLIS    CLOUDY    34  33  96 SW10      29.76F FOG
$$

  *****  WEATHER ACROSS SOUTH DAKOTA  *****

CITY           SKY/WX    TMP DP  RH WIND       PRES   REMARKS
SIOUX FALLS    FOG       33  32  96 S10       29.72S VSB 1   WCI  25
BROOKINGS      NOT AVBL
WATERTOWN      SUNNY     25  23  92 S13       29.64F FOG     WCI  14
HURON          SUNNY     29  25  85 SE12      29.63F WCI  19
SISSETON         N/A     35  28  75 SE9       29.60F
ABERDEEN       SUNNY     26  22  84 S10       29.60F WCI  16
MITCHELL       SUNNY     33  30  88 S10       29.66F WCI  25
PIERRE         PTSUNNY   30  26  85 SE7       29.54F WCI  23
MOBRIDGE       PTSUNNY   34  29  82 S12       29.50F
RAPID CITY     PTSUNNY   42  28  57 S9        29.48F
$$

  *****  SOME WEATHER IN NEARBY STATES *****

CITY           SKY/WX    TMP DP  RH WIND       PRES   REMARKS
GLASGOW MT     SUNNY     35  28  75 SE13      29.26F
GREAT FALLS MT CLEAR     46  29  51 SW29G40   29.28S
CHEYENNE WY    CLOUDY    44  15  31 SW10      29.73F
SCOTTSBLUFF NE CLOUDY    56  19  23 SW21G31   29.66F
OMAHA NE       CLOUDY    40  38  93 S15       29.85F FOG
DES MOINES IA  CLOUDY    45  41  86 SW15      29.87F FOG
DAVENPORT IA   CLOUDY    46  42  86 S14       29.92F FOG
CHICAGO IL     CLOUDY    39  37  92 S10       29.99S FOG
EAU CLAIRE WI  CLOUDY    35  32  88 SW12      29.78F
LA CROSSE WI   CLOUDY    37  34  89 S10       29.84S FOG
$$

  *****  SOME NATIONAL WEATHER *****

CITY           SKY/WX    TMP DP  RH WIND       PRES   REMARKS
LA GUARDIA NY  MOSUNNY   35  11  36 SW18      30.43F WCI  24
RALEIGH NC     MOSUNNY   44  14  29 VRB3      30.56F
ATLANTA GA     MOSUNNY   50  25  37 E9        30.45F
NEW ORLEANS LA MOSUNNY   67  56  67 E16G23    30.21R
OKLAHOMA CITY  RAIN      58  55  90 SE12      30.00R FOG
ALBUQUERQUE NM MOSUNNY   37  20  50 NW6       30.12R
SALT LAKE CITY CLOUDY    49  24  37 S22G31    29.83F
LOS ANGELES CA MOSUNNY   58  44  60 E5        30.10R
BOISE ID       CLOUDY    40  39  97 S5        29.72S
SEATTLE WA     CLOUDY    45  41  86 S16       29.70R
$$

*** WEATHER ACROSS MANITOBA...SASKATCHEWAN AND ONTARIO ***
                ***ONTARIO***

CITY           SKY/WX    TMP DP  RH WIND       PRES   REMARKS
GERALDTON      LGT SNOW  30  27  86 SW9       29.56R WCI  22
THUNDER BAY    CLOUDY    34  27  75 SW8       29.63F
SIOUX LOOKOUT  CLOUDY    27  23  86 N5        29.59R WCI  21
TORONTO        CLOUDY    36  25  64 S10G18    30.05F
BIG TROUT LK   MOSUNNY    3  -2  78 NW10      29.63R WCI -12
PICKLE LAKE    FLURRIES  21  16  79 VRB6      29.57R WCI  14
DRYDEN         CLOUDY    27  25  93 VRB2      29.59S
KENORA         FLURRIES  27  25  93 CALM      29.59S
$$
                *** MANITOBA***

CITY           SKY/WX    TMP DP  RH WIND       PRES   REMARKS
BRANDON        FRZ DRZL  25  25 100 E15G23    29.54F FOG     WCI  12
DAUPHIN        NOT AVBL
ISLAND LAKE    FLURRIES   3  -2  78 N5        29.69R WCI  -6
PILOT MOUND      N/A     28  28 100 E13         N/A  WCI  18
THE PAS        CLOUDY     9   3  78 E9        29.64R WCI  -5
THOMPSON       CRYSTALS -13 -18  77 VRB2      29.71S
WINNIPEG       FLURRIES  25  21  86 E10       29.62F WCI  15
LYNN LAKE      CLOUDY   -13 -17  84 NW3       29.66S
CHURCHILL      CRYSTALS -11 -17  77 NW15      29.70S WCI -34
GILLAM         PTCLDY   -11 -17  77 W7        29.73R WCI -26
$$
                ***SASKATCHEWAN***

CITY           SKY/WX    TMP DP  RH WIND       PRES   REMARKS
ESTEVAN        CLOUDY    30  28  93 E10       29.39F WCI  21
KINDERSLEY     FRZ RAIN  32  30  93 E18       29.09F WCI  20
LLOYDMINSTER   LGT SNOW  23  23 100 E18G29    29.19F BLWGSNOWWCI   9
PRINCE ALBERT  LGT SNOW  21  19  93 E16       29.43F WCI   7
REGINA         CLOUDY    32  32 100 SE17G24   29.31F FOG     WCI  21



USA.gov is the U.S. government's official web portal to all federal, state and local government web resources and services.